Location: Berlin
(38.3226°N, 75.2177°W)
Time: 06:09:59
(UTC+00:00)

CENTAUR R/B - Pass Details

Date: 26 October 2020
Orbit: 749 x 1439 km, 63.5° (Epoch: 22 November)

Event Time Altitude Azimuth Distance (km) Brightness Sun altitude
Exits shadow 08:57:17 54° 343° (NNW) 1,156 2.7 -28.8°
Drops below altitude 10° 09:03:05 10° 27° (NNE) 2,924 5.4 -27.7°
Sets 09:06:03 0° 31° (NNE) 3,997 6.2 -27.1°
